Volver al catálogo

STARLINK-3400

ActivoComunicacionesVLEO
NORAD 51128·PAYLOAD·🇺🇸 United States

Lanzado Jan 19, 2022 desde Cape Canaveral Space Force Station

Loading…

Próximos Pases (próximas 24 horas)

TLE

ActualizadoSource: CelesTrak SupGP

Época: Sep 15, 2026, 02:07 UTC

1 51128C 22005AA  26258.08868056  .00013716  00000+0  39270-3 0  2589
2 51128  53.1604 163.6026 0001132  79.4139   4.8542 15.35370968    13

Sigue STARLINK-3400 en tiempo real con AllMySat

Download on the App Store